Starlink 1552

operational
NORAD ID: 46076 Int'l Des: 2020-055 Owner: SPXS Country: US Constellation: starlink
LEOCIRCULARSTARLINK_TYPE

Starlink 1552について

説明を読み込み中...

リアルタイム位置

3D地球を読み込み中...

次回通過

高度履歴

Altitude vs Time

uPlot chart will show altitude changes over time

軌道要素

1 46076U 20055BB 26063.53817624 -.00000107 00000-0 11717-4 0 9998
2 46076 53.0538 119.7438 0001569 115.1141 245.0011 15.06400067308516
Epoch: Mar 4, 2026 • Age: 22 hours

現在のステータス

高度 561.1 km
速度 7.58 km/s
衛星直下点 -39.19°S, 55.85°W
打ち上げ日 Aug 7, 2020
運用期間 5.5 years
タイプ internet

技術仕様

分類 Payload
質量 260.00 kg
乾燥質量 248.00 kg
総質量 260.00 kg
長さ 0.20 m
直径 2.80 m
スパン 9.00 m
形状 Box + pan
製造者 SPXS
バスタイプ Starlink
フェーズステータス In Orbit
所有者/国 SPXS/US

大規模コンステレーション

Loading constellations...